Location: ?????
(54.9266°N, 38.5527°E)
Time: 22:54:22
(UTC+00:00)

KHALIFASAT - Visible Passes

Search period start: 15 September 2024 00:00
Search period end: 25 September 2024 00:00
Orbit: 570 x 590 km, 98.1° (Epoch: 15 September)

Date Brightness Start Highest point End Pass type
(mag) Time Alt. Az. Time Alt. Az. Time Alt. Az.
15 Sep ? 00:26:15 63° WSW 00:26:25 63° WSW 00:30:29 10° NNW visible
15 Sep ? 22:55:02 19° E 22:56:20 22° ENE 22:59:30 10° N visible
16 Sep ? 00:31:22 57° W 00:31:22 57° W 00:35:22 10° NNW visible
16 Sep ? 23:00:08 21° E 23:01:11 24° ENE 23:04:28 10° N visible
17 Sep ? 00:36:28 51° W 00:36:28 51° W 00:40:14 10° NNW visible
17 Sep ? 23:05:13 24° E 23:06:01 26° ENE 23:09:24 10° N visible
18 Sep ? 00:41:33 44° W 00:41:33 44° W 00:45:04 10° NNW visible
18 Sep ? 23:10:17 27° ENE 23:10:50 28° ENE 23:14:19 10° N visible
19 Sep ? 00:46:38 39° WNW 00:46:38 39° WNW 00:49:54 10° NNW visible
19 Sep ? 23:15:21 30° ENE 23:15:38 30° ENE 23:19:13 10° N visible
20 Sep ? 00:51:41 34° WNW 00:51:41 34° WNW 00:54:42 10° NNW visible
20 Sep ? 23:20:23 33° ENE 23:20:25 33° ENE 23:24:06 10° N visible
21 Sep ? 00:56:44 30° WNW 00:56:44 30° WNW 00:59:28 10° NNW visible
21 Sep ? 23:25:25 35° ENE 23:25:25 35° ENE 23:28:57 10° N visible
22 Sep ? 01:01:45 26° WNW 01:01:45 26° WNW 01:04:13 10° NNW visible
22 Sep ? 23:30:26 37° NE 23:30:26 37° NE 23:33:47 10° N visible
23 Sep ? 01:06:46 23° WNW 01:06:46 23° WNW 01:08:57 10° NNW visible
23 Sep ? 23:35:26 38° NE 23:35:26 38° NE 23:38:36 10° N visible
24 Sep ? 01:11:46 21° WNW 01:11:46 21° WNW 01:13:39 10° NW visible
24 Sep ? 23:40:25 38° NNE 23:40:25 38° NNE 23:43:23 10° N visible
